TITAN 3C TRANSTAGE R/B, 7324

Orbit data source: Space-Track

TITAN 3C TRANSTAGE R/B, 7324 is space debris in GEO originally from a launch on Thu, 30 May 1974 UTC launched from the Air Force Eastern Test Range (AFETR). Debris objects in space refer to the collection of defunct objects orbiting the Earth. Examples of debris include non-operational satellites, rocket bodies, and fragments generated from explosions, collisions, or faulty payload assembly.

Not visible in the next 10 days
Identifier
7324, 1974-039C
Orbit
GEO
Country
Flag of USUS
Related business
Manufacturer
Martin Marietta
Mission
Spacecraft
Bus & Motor
TRANSTAGE, Unknown motor
Mass
~1,950 kg wet, ~1,950 kg dry
Launch date (UTC)
1974-05-30 (51 years ago)
Launch vehicle
Unknown
Launch site
Air Force Eastern Test Range (AFETR)
Object type
Payload
Rocket body
Debris
Shape & HBR
Unknown
Radar Cross Section
Large (>1 m²)

Expand to show TLE details & history
Last TLE update: 6 hours ago

TLE from 6 hours ago
0 TITAN 3C TRANSTAGE R/B
1 07324U 74039C   25301.59191336 -.00000347  00000-0  00000-0 0  9992
2 07324   3.3396 265.1581 0032625  74.1445  16.8516  1.00724752117298
Epoch: 2025-10-28T14:12Z
TLE epoch observation values (Epoch: 2025-10-28T14:12:21.314Z)
Latitude
3.35878°
Longitude
105.9588°
Altitude
35,527.985 km
Speed
3.089 km/s
True Right ascension
23h 44m 53s
True Declination
3° 21' 19"
Sunlit
Object was in daylight at epoch
Visualization orbit readout
Latitude
Unknown
Longitude
Unknown
Altitude
Unknown
Speed
Unknown
Apparent Right ascension
Unknown
Apparent Declination
Unknown
Sunlit
N/A
Visualization observer readout
Local Sidereal Time
16:08:30
Azimuth
Unknown
Elevation
Unknown
Doppler factor
Unknown
Orbital elements
Apogee altitude
35,798.309 km
Perigee altitude
35,524.003 km
Semi-major axis
42,039.293 km
Eccentricity
0.00326
Inclination
3.3396°
RAAN
265.1581°
Arg. of periapsis
74.1445°
True anomaly
16.9604°
Mean anomaly
16.8516°
Eccentric anomaly
16.90596°
Mean motion
0.2518 °/min
Orbital period
1,429.69 mins
BSTAR
0
Loading maneuver chart data...
Computing Atmospheric mass density...
Loading historical data...
Loading historical data...
Loading historical data...
Loading historical data...
Loading historical data...
Loading historical data...
Loading historical data...
Other satellites on launch #39 in the year 1974 (1974-05-30 UTC)

Documentation

Showing up to 5 results
|